Regional Weather Roundup
Issued by NWS

Home | Current Version | Previous Version | Graphics & Text | Print | Product List | Glossary On
Versions: 1 2 3 4 5 6 7 8 9 10 11 12 13 14 15 16 17 18 19 20 21 22 23 24 25 26 27 28 29 30 31 32 33 34 35 36 37 38 39 40 41 42 43 44 45 46 47 48 49 50
263
ASUS43 KLOT 290603
RWRIL

ILLINOIS REGIONAL WEATHER ROUNDUP
NATIONAL WEATHER SERVICE CHICAGO/ROMEOVILLE IL
100 AM CDT FRI JUL 29 2016

NOTE: "FAIR" INDICATES FEW OR NO CLOUDS BELOW 12,000 FEET WITH NO
SIGNIFICANT WEATHER AND/OR OBSTRUCTIONS TO VISIBILITY.

* THESE STATIONS ARE NOT UNDER NWS QUALITY CONTROL. THEY ALSO MAY NOT
  REPORT WEATHER SUCH AS PRECIPITATION OR FOG.

ILZ001-002-007-009-015-016-024-290700-
NORTHWEST ILLINOIS

CITY           SKY/WX    TMP DP  RH WIND       PRES   REMARKS
MOLINE         CLEAR     72  67  84 W6        29.91F
6HR MIN TEMP:  71; 6HR MAX TEMP:  83;

STERLING*      FOG       71  69  93 NE7       29.93S VSB 1/4
SAVANNA*       CLEAR     69  67  92 NE5       29.93S
$$

ILZ003-004-008-010-011-017-018-290700-
NORTH CENTRAL ILLINOIS

CITY           SKY/WX    TMP DP  RH WIND       PRES   REMARKS
ROCKFORD       CLOUDY    71  65  81 NE7       29.95S
6HR MIN TEMP:  70; 6HR MAX TEMP:  80;

FREEPORT*      CLOUDY    67  66  95 NE5       29.97S
ROCHELLE*      CLOUDY    68  67  96 NE5       29.95R
DE KALB*       CLOUDY    68  67  97 N5        29.95S FOG
$$

ILZ005-006-012>014-019>023-290700-
NORTHEAST ILLINOIS

CITY           SKY/WX    TMP DP  RH WIND       PRES   REMARKS
CHICAGO-OHARE  MOCLDY    70  68  93 N9        29.92R
6HR MIN TEMP:  70; 6HR MAX TEMP:  75;

CHICAGO-MIDWAY MOCLDY    73  69  87 NW7       29.91S FOG
6HR MIN TEMP:  72; 6HR MAX TEMP:  77;

AURORA         MOCLDY    69  67  93 N6        29.93S FOG
6HR MIN TEMP:  68; 6HR MAX TEMP:  73;

LANSING*       PTCLDY    71  67  89 CALM      29.91S FOG
WAUKEGAN       MOCLDY    69  67  93 N5        29.93S
6HR MIN TEMP:  68; 6HR MAX TEMP:  72;

DUPAGE AIRPORT CLOUDY    70  68  93 N9        29.93R FOG
6HR MIN TEMP:  68; 6HR MAX TEMP:  75;

KANKAKEE*      CLEAR     70  69  95 CALM      29.92S FOG
WHEELING       CLOUDY    69  67  93 N5        29.94R
6HR MIN TEMP:  69; 6HR MAX TEMP:  72;

MORRIS*        CLEAR     69  68  96 CALM      29.91S FOG
NORTHERLY ISL    N/A     70  67  90 N7          N/A
$$

LMZ740>746-290700-
SOUTHERN LAKE MICHIGAN

STATION/POSITION SKY/WX   TEMP    WIND        PRES    VSBY  WAVE
                          AIR SEA DIR/SP/G                  HT/PER
                          (F)     (DEG/KT/KT) (MB)    (MI)  (FT/S)
SOUTHERN BUOY              74 75   70/  8/ 10 1012.9          2/ 6
WILMETTE HARBOR            71 73   20/ 12/ 16   N/A           4/ 5
HARRISON CRIB              71     340/ 12/ 12   N/A
BURNHAM HARBOR             70      10/  7/ 10   N/A
CALUMET HARBOR             74      80/  2/  3 1012.4F
BURNS HARBOR               74     100/  5/  7 1013.5R
MICHIGAN CITY              71      CALM  /  1   N/A
MICHIGAN CITY 6N           74 77  150/  2/  4   N/A           2/ 3
ST. JOSEPH                 73 76   80/  8/ 10 1012.8R         1
$$

ILZ025>027-034>036-040-047-049-050-058-095>099-290700-
WEST-CENTRAL ILLINOIS

CITY           SKY/WX    TMP DP  RH WIND       PRES   REMARKS
QUINCY         CLEAR     70  68  93 W3        29.95S
GALESBURG*     CLEAR     67  66  95 W3        29.94R
MACOMB*        CLEAR     66  65  96 W5        29.96S
JACKSONVILLE*  CLEAR     68  67  94 CALM      29.93S
PITTSFIELD*    CLEAR     70  67  92 W3        29.95F
$$

ILZ028>032-037-038-041>044-048-051>054-059>061-290700-
CENTRAL ILLINOIS

CITY           SKY/WX    TMP DP  RH WIND       PRES   REMARKS
PONTIAC        CLEAR     69  69 100 CALM      29.92S FOG
BLOOMINGTON    CLEAR     70  69  97 E5        29.93F
DECATUR        CLEAR     70  68  93 CALM      29.91F
PEORIA         CLEAR     71  68  90 W5        29.92S
6HR MIN TEMP:  71; 6HR MAX TEMP:  79;

LACON*         MOCLDY    71  69  94 CALM      29.91S
LINCOLN*       CLEAR     70  70 100 CALM      29.92S
SPRINGFIELD    CLEAR     73  69  87 NW3       29.93R
6HR MIN TEMP:  72; 6HR MAX TEMP:  84;

TAYLORVILLE    CLEAR     70  70  99 MISG      29.93S
6HR MIN TEMP:  70; 6HR MAX TEMP:  81;

$$

ILZ033-039-045-046-055>057-062-063-290700-
EAST-CENTRAL ILLINOIS

CITY           SKY/WX    TMP DP  RH WIND       PRES   REMARKS
CHAMPAIGN      CLOUDY    72  70  93 CALM      29.92S
RANTOUL*       PTCLDY    72  72 100 CALM      29.91F FOG
MATTOON        CLEAR     68  66  93 CALM      29.91S
PARIS*         PTCLDY    69  69 100 CALM      29.92S FOG
$$

ILZ079-100>102-290700-
SOUTHWEST ILLINOIS

CITY           SKY/WX    TMP DP  RH WIND       PRES   REMARKS
ALTON          CLOUDY    74  71  88 CALM      29.93S
CAHOKIA*       PTCLDY    76  73  91 CALM      29.91F
SPARTA*        CLOUDY    75  72  89 CALM      29.93S
$$

ILZ064>066-069>071-074>076-080>082-084>086-088>090-092>094-290700-
SOUTH-CENTRAL ILLINOIS

CITY           SKY/WX    TMP DP  RH WIND       PRES   REMARKS
CARBONDALE     PTCLDY    72  70  93 S3        29.92S
6HR MIN TEMP:  72; 6HR MAX TEMP:  77;

CAIRO*         PTCLDY    73  73  99 CALM      29.93S
EFFINGHAM*     CLEAR     69  69 100 CALM      29.93F FOG
MARION         PTCLDY    73  72  94 CALM      29.92F
MT. VERNON     CLEAR     72  66  83 MISG      29.92S
CENTRALIA*     CLEAR     70  70 100 CALM      29.91S
SALEM*         CLEAR     70  69  95 CALM      29.92S FOG
METROPOLIS*    CLOUDY    75  72  90 CALM      29.94S
$$

ILZ067-068-072-073-078-083-087-091-290700-
SOUTHEAST ILLINOIS

CITY           SKY/WX    TMP DP  RH WIND       PRES   REMARKS
LAWRENCEVILLE  CLEAR     71  69  93 CALM      29.91F
FLORA*         FOG       73  72  98 CALM      29.92S VSB 1/4
FAIRFIELD*     CLEAR     71  71  99 CALM      29.91R
HARRISBURG*    PTCLDY    73  73 100 CALM      29.92S
ROBINSON*      CLEAR     69  69  99 SW3       29.92S
CARMI*         PTCLDY    72  71  99 CALM      29.91S
$$

ABBREVIATIONS USED IN REMARKS
   TC - TEMPERATURE IN CELSIUS
  WCI - WIND CHILL INDEX
   HX - HEAT INDEX
  VSB - VISIBILITY
$$





USA.gov is the U.S. government's official web portal to all federal, state and local government web resources and services.